Regional Weather Roundup
Issued by NWS

Home | Current Version | Previous Version | Graphics & Text | Print | Product List | Glossary On
Versions: 1 2 3 4 5 6 7 8 9 10 11 12 13 14 15 16 17 18 19 20 21 22 23 24 25 26 27 28 29 30 31 32 33 34 35 36 37 38 39 40 41 42 43 44 45 46 47 48 49 50
000
ASUS45 KCYS 211810
RWRWY

WYOMING REGIONAL WEATHER ROUNDUP
NATIONAL WEATHER SERVICE CHEYENNE WY
1200 PM MDT FRI JUL 21 2017

NOTE:  "FAIR" INDICATES FEW OR NO CLOUDS BELOW 12,000 FEET
WITH NO SIGNIFICANT WEATHER AND/OR OBSTRUCTIONS TO VISIBILITY.

WYZ001-211900-
YELLOWSTONE NATIONAL PARK

CITY           SKY/WX    TMP DP  RH WIND       PRES   REMARKS
LK YELLOWSTONE   N/A     69  36  29 W7        30.34S
6HR MIN TEMP:  37; 6HR MAX TEMP:  69;

W YELLOWSTONE  NOT AVBL

$$
WYZ002>013-054>058-071-098>099-211900-
NORTHERN WYOMING

CITY           SKY/WX    TMP DP  RH WIND       PRES   REMARKS
JACKSON        SUNNY     72  50  46 CALM      30.26F
CODY           FAIR      76  38  25 VRB6      30.14F
GREYBULL       FAIR      85  38  18 NW7       30.04F
6HR MIN TEMP:  57; 6HR MAX TEMP:  85;

WORLAND        FAIR      80  56  43 CALM      30.06F
6HR MIN TEMP:  53; 6HR MAX TEMP:  81;

SHERIDAN       FAIR      86  35  16 NW10G16   30.06S
6HR MIN TEMP:  60; 6HR MAX TEMP:  86;

BUFFALO        FAIR      80  36  20 N15G22    30.12R
6HR MIN TEMP:  68; 6HR MAX TEMP:  80;

GILLETTE       FAIR      85  36  17 N16G25    30.05S
6HR MIN TEMP:  68; 6HR MAX TEMP:  86;

HULETT         FAIR      82  43  24 NW12G22   30.06R
NEWCASTLE      FAIR      81  46  30 NW21G28   30.03S

$$
WYZ014>020-022>026-101>103-211900-
CENTRAL WYOMING

CITY           SKY/WX    TMP DP  RH WIND       PRES   REMARKS
BIG PINEY      FAIR      73  50  44 E6        30.30S
6HR MIN TEMP:  53; 6HR MAX TEMP:  73; 6HR PCP: TRACE;

PINEDALE       FAIR      73  39  29 NW3       30.31S
DUBOIS         FAIR      75  28  17 NW13G22   30.26F
LANDER         FAIR      76  54  46 SE7       30.16F
6HR MIN TEMP:  59; 6HR MAX TEMP:  77; 6HR PCP: TRACE;

RIVERTON       FAIR      76  53  44 SE9       30.15S
6HR MIN TEMP:  60; 6HR MAX TEMP:  77; 6HR PCP: TRACE;

CASPER         FAIR      83  48  29 VRB3      30.13F
6HR MIN TEMP:  63; 6HR MAX TEMP:  83;

DOUGLAS        FAIR      81  47  30 NW13      30.11R
6HR MIN TEMP:  62; 6HR MAX TEMP:  85;


$$
WYZ021-027>030-104>119-211900-
SOUTHERN WYOMING

CITY           SKY/WX    TMP DP  RH WIND       PRES   REMARKS
EVANSTON       FAIR      78  51  38 W10       30.30R
6HR MIN TEMP:  60; 6HR MAX TEMP:  78; 6HR PCP: TRACE;

KEMMERER         N/A     79  36  21 CALM      30.31S
FORT BRIDGER   MOCLDY    76  50  40 CALM      30.32S
ROCK SPRINGS   FAIR      76  52  43 SW8       30.28S
6HR MIN TEMP:  58; 6HR MAX TEMP:  76; 6HR PCP: TRACE;

RAWLINS        FAIR      78  49  35 SW14      30.28S
6HR MIN TEMP:  56; 6HR MAX TEMP:  78;

SARATOGA       FAIR      77  48  36 NW12G17   30.30S
LARAMIE        FAIR      78  46  32 MISG      30.29S
6HR MIN TEMP:  54; 6HR MAX TEMP:  78;

CHEYENNE       FAIR      83  42  23 NW15      30.19S
6HR MIN TEMP:  63; 6HR MAX TEMP:  85;

TORRINGTON     FAIR      92  53  26 NW12G17   30.02F
6HR MIN TEMP:  63; 6HR MAX TEMP:  92;

PINE BLUFFS    FAIR      90  37  15 N9        30.11S

$$



USA.gov is the U.S. government's official web portal to all federal, state and local government web resources and services.